[[{"header":{"parameterUnit":"m.s-1","parameterCategory":1,"la1":30.2991,"la2":30.254,"lo1":-89.0895,"lo2":-89.0444,"dy":0.0017,"dx":0.0017,"nx":28,"ny":28,"refTime":"2024-08-24T21:00:00:Z","depth":0,"parameterNumber":2,"parameterNumberName":"U-component_of_WINDS"},"data":[0,0,0,0,0,0,0,0,0,0,0,0,0,0,0,0,0,0,0,0,0,0,0,0,0,0,0,0,0,0,0,0,0,0,0,0,0,0,0,0,0,0,0,0,0,0,0,0,0,0,0,0,0,0,0,0,0,0,-1.0773,-1.0772,0,-1.0743,-1.0743,-1.0743,-1.0696,-1.0695,-1.0694,-1.0693,-1.0664,-1.0664,-1.0664,0,0,0,0,0,0,0,0,0,0,0,0,0,-1.0788,-1.0788,-1.0773,-1.0772,-1.0772,-1.0743,-1.0743,-1.0743,-1.0696,-1.0695,-1.0694,-1.0693,-1.0664,-1.0664,-1.0664,0,0,0,0,0,0,0,0,0,0,0,0,0,-1.0773,-1.0788,-1.0773,-1.0745,-1.0742,-1.0744,-1.0743,-1.0743,-1.0696,-1.0695,-1.0693,-1.0692,-1.0664,-1.0664,-1.0664,-1.0691,0,0,-1.0664,-1.0664,0,0,0,0,0,0,0,0,-1.0774,-1.0772,-1.075,-1.0747,-1.0744,-1.0722,-1.0738,-1.0725,-1.0696,-1.0714,-1.0693,-1.0691,-1.0684,-1.0683,-1.068,-1.0689,-1.0688,-1.0664,-1.0665,-1.0665,-1.0665,0,0,0,0,0,0,0,-1.0775,-1.0773,-1.0761,-1.0749,-1.0746,-1.0734,-1.0731,-1.0735,-1.0707,-1.0712,-1.0708,-1.0706,-1.0683,-1.068,-1.0679,-1.0688,-1.0664,-1.0665,-1.0665,-1.0665,-1.0716,-1.0717,0,0,0,0,0,0,-1.078,-1.0774,-1.0762,-1.076,-1.0756,-1.0735,-1.0731,-1.073,-1.0707,-1.0702,-1.0707,-1.0703,-1.0681,-1.0679,-1.0678,-1.0706,-1.0665,-1.0665,-1.0665,-1.0714,-1.0716,-1.0717,0,0,0,0,0,0,-1.078,-1.0779,-1.0763,-1.0766,-1.0763,-1.0736,-1.0736,-1.073,-1.0728,-1.0703,-1.0697,-1.0709,-1.068,-1.0678,-1.0687,-1.0705,-1.0665,-1.0665,-1.0713,-1.0715,-1.0717,-1.0764,0,0,0,0,0,0,-1.0781,-1.078,-1.0789,-1.0767,-1.0763,-1.0773,-1.0737,-1.0731,-1.0728,-1.0723,-1.0704,-1.0699,-1.0679,-1.0688,-1.0688,-1.0704,-1.0665,-1.0711,-1.0714,-1.0716,-1.0761,-1.0768,-1.0773,0,0,0,0,0,-1.0782,-1.0804,-1.079,-1.0789,-1.0775,-1.0774,-1.0772,-1.0748,-1.073,-1.0739,-1.0723,-1.07,-1.0703,-1.0689,-1.0689,-1.0706,-1.071,-1.0713,-1.0716,-1.0758,-1.0767,-1.0773,0,0,0,0,0,0,-1.083,-1.0801,-1.0785,-1.0801,-1.079,-1.0766,-1.0778,-1.0757,-1.0752,-1.0748,-1.0718,-1.0714,-1.0728,-1.0718,-1.0703,-1.0729,-1.0703,-1.0706,-1.0735,-1.0743,-1.0749,-1.0751,-1.0665,0,0,0,0,0,-1.0843,-1.0845,-1.0819,-1.0836,-1.0831,-1.0806,-1.0804,-1.0786,-1.0774,-1.077,-1.0754,-1.0744,-1.0742,-1.0742,-1.0739,-1.0759,-1.0754,-1.0771,-1.0777,-1.0782,-1.0785,-1.0794,-1.0801,-1.0727,-1.0727,-1.0727,0,0,-1.0869,-1.0853,-1.0856,-1.0845,-1.0835,-1.0837,-1.0802,-1.0807,-1.0808,-1.0771,-1.0778,-1.0767,-1.0753,-1.0768,-1.0774,-1.076,-1.0804,-1.0786,-1.079,-1.079,-1.0798,-1.0805,-1.0811,-1.0729,-1.0729,-1.0729,0,0,-1.0917,-1.0906,-1.0918,-1.0908,-1.0893,-1.0875,-1.0878,-1.0857,-1.0848,-1.0855,-1.0827,-1.0828,-1.0827,-1.0818,-1.0813,-1.0857,-1.0836,-1.0857,-1.089,-1.0899,-1.0905,-1.0909,-1.0925,-1.0931,-1.086,-1.0861,-1.0861,0,-1.0952,-1.0954,-1.0927,-1.0933,-1.0929,-1.0894,-1.0906,-1.0898,-1.0883,-1.0881,-1.0865,-1.0862,-1.085,-1.0862,-1.0873,-1.087,-1.0873,-1.086,-1.0906,-1.0911,-1.0915,-1.0929,-1.0935,-1.0863,-1.0863,-1.0863,-1.0862,0,-1.0997,-1.0999,-1.1011,-1.0996,-1.0993,-1.1003,-1.0976,-1.0977,-1.0959,-1.0943,-1.0951,-1.0935,-1.0928,-1.093,-1.0913,-1.0939,-1.0931,-1.0911,-1.0884,-1.0925,-1.0938,-1.0943,-1.0867,-1.0866,-1.0865,-1.0865,0,0,-1.1076,-1.1045,-1.105,-1.1043,-1.1023,-1.1024,-1.1031,-1.1024,-1.1025,-1.1015,-1.1021,-1.1019,-1.1001,-1.0995,-1.0977,-1.0985,-1.102,-1.0964,-1.0963,-1.0974,-1.1048,-1.1062,-1.1069,-1.1006,-1.1007,-1.1007,-1.1049,0,-1.112,-1.1131,-1.1106,-1.1122,-1.1124,-1.1091,-1.1097,-1.1085,-1.1071,-1.107,-1.1053,-1.1053,-1.1028,-1.1025,-1.1031,-1.1015,-1.1034,-1.1011,-1.101,-1.101,-1.1014,-1.1076,-1.1092,-1.1132,-1.1053,-1.1054,-1.1055,0,-1.1174,-1.1166,-1.1183,-1.1161,-1.1161,-1.1167,-1.1158,-1.1157,-1.1143,-1.1132,-1.1125,-1.1103,-1.1109,-1.1083,-1.1089,-1.1074,-1.1072,-1.1064,-1.1065,-1.1064,-1.1035,-1.1076,-1.1144,-1.115,-1.1063,-1.1062,-1.1061,0,-1.1229,-1.1223,-1.1232,-1.1227,-1.1202,-1.1207,-1.1197,-1.1181,-1.1178,-1.117,-1.1168,-1.1161,-1.1158,-1.1153,-1.1129,-1.1112,-1.1139,-1.1111,-1.1129,-1.113,-1.1136,-1.1136,-1.1204,-1.1135,-1.1135,-1.1135,-1.1135,0,-1.1281,-1.1293,-1.1256,-1.1262,-1.1273,-1.1245,-1.1257,-1.1243,-1.123,-1.1232,-1.1203,-1.1206,-1.1175,-1.1174,-1.1155,-1.1163,-1.1162,-1.1153,-1.1148,-1.1156,-1.1157,-1.1154,-1.115,-1.1137,-1.1136,-1.1136,-1.1136,0,-1.1345,-1.1322,-1.1329,-1.1304,-1.1298,-1.1308,-1.1287,-1.1291,-1.1274,-1.1277,-1.1276,-1.125,-1.1247,-1.1223,-1.1215,-1.1203,-1.1218,-1.1208,-1.1222,-1.1219,-1.1239,-1.1237,-1.1307,-1.1314,-1.1242,-1.1242,-1.1243,0,-1.138,-1.1388,-1.1364,-1.1363,-1.1354,-1.1353,-1.135,-1.1322,-1.1319,-1.1303,-1.1309,-1.1304,-1.1298,-1.1296,-1.1276,-1.127,-1.1259,-1.1284,-1.1258,-1.1265,-1.1259,-1.1258,-1.1259,-1.1289,-1.129,-1.1291,-1.1292,0,-1.1445,-1.1432,-1.1428,-1.142,-1.1416,-1.1408,-1.1399,-1.14,-1.1368,-1.1367,-1.1364,-1.1359,-1.1351,-1.1346,-1.1336,-1.1325,-1.1303,-1.13,-1.1304,-1.1311,-1.132,-1.1315,-1.1237,-1.1298,-1.1298,-1.1297,-1.1297,-1.1297,-1.1495,-1.15,-1.1483,-1.148,-1.1469,-1.1461,-1.1463,-1.1446,-1.1442,-1.1433,-1.1416,-1.1415,-1.14,-1.1384,-1.1376,-1.1374,-1.1361,-1.1367,-1.1368,-1.137,-1.1374,-1.132,-1.1372,-1.1372,-1.1372,-1.1372,-1.1372,0,-1.1557,-1.1545,-1.1542,-1.1529,-1.1525,-1.1504,-1.1492,-1.1491,-1.149,-1.1478,-1.1473,-1.1468,-1.1463,-1.1443,-1.1435,-1.1438,-1.1428,-1.1437,-1.1437,-1.1434,-1.1386,-1.1384,-1.1445,-1.1445,-1.1445,-1.1445,-1.1445,-1.1445,-1.159,-1.1597,-1.1582,-1.1584,-1.1571,-1.1569,-1.1564,-1.1556,-1.1546,-1.1542,-1.1538,-1.1524,-1.1508,-1.1499,-1.1493,-1.1487,-1.1486,-1.1498,-1.1489,-1.1445,-1.1438,-1.1431,-1.1428,-1.1498,-1.1499,-1.1537,-1.1537,-1.1538]},{"header":{"parameterUnit":"m.s-1","parameterCategory":1,"la1":30.2991,"la2":30.254,"lo1":-89.0895,"lo2":-89.0444,"dy":0.0017,"dx":0.0017,"nx":28,"ny":28,"refTime":"2024-08-24T21:00:00:Z","depth":0,"parameterNumber":3,"parameterNumberName":"V-component_of_WINDS"},"data":[0,0,0,0,0,0,0,0,0,0,0,0,0,0,0,0,0,0,0,0,0,0,0,0,0,0,0,0,0,0,0,0,0,0,0,0,0,0,0,0,0,0,0,0,0,0,0,0,0,0,0,0,0,0,0,0,0,0,-0.3819,-0.382,0,-0.3906,-0.3907,-0.3908,-0.3968,-0.3968,-0.3969,-0.3969,-0.406,-0.4062,-0.4064,0,0,0,0,0,0,0,0,0,0,0,0,0,-0.3707,-0.3708,-0.3819,-0.382,-0.3821,-0.3906,-0.3907,-0.3908,-0.3968,-0.3969,-0.3969,-0.397,-0.4059,-0.4062,-0.4064,0,0,0,0,0,0,0,0,0,0,0,0,0,-0.3771,-0.3709,-0.3819,-0.3861,-0.3866,-0.3906,-0.3907,-0.3909,-0.3968,-0.3969,-0.3969,-0.397,-0.4059,-0.4062,-0.4065,-0.407,0,0,-0.4074,-0.4075,0,0,0,0,0,0,0,0,-0.3767,-0.3775,-0.3854,-0.3858,-0.3864,-0.3927,-0.3901,-0.3963,-0.3968,-0.3929,-0.3969,-0.397,-0.4015,-0.4022,-0.4037,-0.4074,-0.4078,-0.4074,-0.4076,-0.4077,-0.4078,0,0,0,0,0,0,0,-0.3763,-0.3771,-0.3853,-0.3855,-0.3861,-0.3876,-0.3886,-0.3913,-0.3967,-0.3933,-0.3937,-0.3946,-0.4018,-0.4034,-0.4039,-0.4079,-0.4074,-0.4077,-0.4078,-0.408,-0.4126,-0.4125,0,0,0,0,0,0,-0.3751,-0.3767,-0.3851,-0.3856,-0.3816,-0.3878,-0.3889,-0.3906,-0.3967,-0.3977,-0.3946,-0.3949,-0.4028,-0.4036,-0.4043,-0.4053,-0.4077,-0.408,-0.4082,-0.4126,-0.4125,-0.4125,0,0,0,0,0,0,-0.3749,-0.3758,-0.3847,-0.3813,-0.3825,-0.3879,-0.3898,-0.3907,-0.3923,-0.3977,-0.3988,-0.3952,-0.4029,-0.4039,-0.4063,-0.4057,-0.4081,-0.4084,-0.4127,-0.4126,-0.4125,-0.4073,0,0,0,0,0,0,-0.3745,-0.3757,-0.3759,-0.3813,-0.3827,-0.3865,-0.3897,-0.3908,-0.3928,-0.3933,-0.3985,-0.3995,-0.403,-0.4058,-0.4065,-0.4062,-0.4086,-0.4128,-0.4126,-0.4125,-0.4076,-0.4071,-0.4067,0,0,0,0,0,-0.3741,-0.3741,-0.3758,-0.3768,-0.383,-0.3864,-0.3873,-0.3913,-0.3927,-0.393,-0.3965,-0.3993,-0.4056,-0.406,-0.4069,-0.4066,-0.4128,-0.4127,-0.4125,-0.4078,-0.4072,-0.4067,0,0,0,0,0,0,-0.3685,-0.3749,-0.3769,-0.3786,-0.3819,-0.3874,-0.3879,-0.3905,-0.3935,-0.3939,-0.3988,-0.4,-0.4018,-0.4045,-0.4047,-0.4074,-0.4096,-0.4096,-0.4056,-0.4051,-0.4047,-0.404,-0.4089,0,0,0,0,0,-0.3675,-0.3696,-0.3751,-0.3761,-0.3776,-0.3824,-0.3841,-0.3869,-0.3906,-0.392,-0.3957,-0.3992,-0.402,-0.4037,-0.4066,-0.408,-0.4093,-0.4083,-0.4078,-0.4074,-0.4074,-0.4084,-0.408,-0.4121,-0.4121,-0.4121,0,0,-0.3654,-0.3691,-0.3702,-0.3751,-0.378,-0.3801,-0.3836,-0.3857,-0.3874,-0.3924,-0.3948,-0.3976,-0.4019,-0.4038,-0.4048,-0.4061,-0.4065,-0.4072,-0.4069,-0.4071,-0.4082,-0.4078,-0.4075,-0.412,-0.412,-0.412,0,0,-0.3627,-0.3657,-0.3669,-0.3697,-0.374,-0.3773,-0.3775,-0.3827,-0.3847,-0.3873,-0.391,-0.3931,-0.3978,-0.4007,-0.4027,-0.4012,-0.4039,-0.402,-0.3996,-0.4005,-0.4002,-0.3999,-0.3994,-0.3991,-0.4019,-0.4019,-0.4019,0,-0.3595,-0.3629,-0.3672,-0.3691,-0.3712,-0.3757,-0.377,-0.3795,-0.3846,-0.3859,-0.3872,-0.3932,-0.3964,-0.3991,-0.3987,-0.4002,-0.4007,-0.4014,-0.3999,-0.3996,-0.3995,-0.399,-0.3988,-0.4017,-0.4017,-0.4017,-0.4018,0,-0.3588,-0.3611,-0.3615,-0.3663,-0.3684,-0.37,-0.3746,-0.3762,-0.3789,-0.382,-0.3846,-0.3885,-0.3923,-0.3931,-0.3958,-0.3962,-0.3968,-0.3989,-0.4012,-0.3987,-0.3984,-0.3983,-0.4013,-0.4014,-0.4015,-0.4015,0,0,-0.3528,-0.3599,-0.36,-0.3622,-0.3673,-0.3692,-0.371,-0.3747,-0.376,-0.3794,-0.3811,-0.385,-0.3869,-0.3893,-0.3923,-0.3931,-0.3916,-0.3951,-0.3953,-0.3943,-0.3924,-0.3908,-0.3905,-0.3935,-0.3935,-0.3935,-0.392,0,-0.3508,-0.3543,-0.3582,-0.3603,-0.3625,-0.3669,-0.3685,-0.3719,-0.3748,-0.3772,-0.3805,-0.3832,-0.3856,-0.387,-0.388,-0.3916,-0.3913,-0.3917,-0.3952,-0.3952,-0.3939,-0.3903,-0.3886,-0.3871,-0.3919,-0.3919,-0.3919,0,-0.349,-0.3521,-0.3544,-0.3594,-0.3605,-0.3618,-0.3655,-0.3677,-0.3716,-0.3738,-0.3764,-0.3796,-0.3818,-0.3838,-0.387,-0.3872,-0.3888,-0.3908,-0.3909,-0.3913,-0.3934,-0.3907,-0.3867,-0.3864,-0.3917,-0.3917,-0.3918,0,-0.3444,-0.3491,-0.3512,-0.3529,-0.3588,-0.3597,-0.3622,-0.3662,-0.3681,-0.3714,-0.3727,-0.3762,-0.378,-0.3807,-0.3848,-0.3859,-0.3876,-0.3899,-0.3894,-0.3893,-0.3895,-0.3895,-0.3857,-0.3906,-0.3906,-0.3906,-0.3906,0,-0.3418,-0.343,-0.3492,-0.3504,-0.3519,-0.3565,-0.3579,-0.3608,-0.3644,-0.3663,-0.3703,-0.3721,-0.3774,-0.3798,-0.383,-0.3852,-0.386,-0.3878,-0.3887,-0.3875,-0.3872,-0.3886,-0.3888,-0.3906,-0.3906,-0.3906,-0.3906,0,-0.3368,-0.341,-0.3435,-0.3488,-0.3502,-0.3511,-0.3558,-0.3572,-0.3604,-0.3628,-0.3636,-0.3686,-0.3717,-0.376,-0.3804,-0.3826,-0.3843,-0.3856,-0.3829,-0.3834,-0.3827,-0.3827,-0.3797,-0.3795,-0.3845,-0.3844,-0.3844,0,-0.3349,-0.3359,-0.3414,-0.343,-0.3453,-0.3478,-0.3498,-0.3544,-0.3563,-0.3609,-0.3618,-0.3651,-0.368,-0.3726,-0.3768,-0.3801,-0.3816,-0.3803,-0.3822,-0.3809,-0.3816,-0.3815,-0.3816,-0.3799,-0.3798,-0.3797,-0.3797,0,-0.331,-0.333,-0.3357,-0.3391,-0.3414,-0.3444,-0.3475,-0.3486,-0.3538,-0.3558,-0.3589,-0.3612,-0.3656,-0.3689,-0.3728,-0.3755,-0.3785,-0.3791,-0.3792,-0.3779,-0.3763,-0.3772,-0.3817,-0.3791,-0.3792,-0.3792,-0.3793,-0.3793,-0.3275,-0.3287,-0.3327,-0.3356,-0.3384,-0.3413,-0.3429,-0.3463,-0.3489,-0.3529,-0.3555,-0.3584,-0.3625,-0.368,-0.3706,-0.373,-0.3743,-0.3744,-0.3744,-0.3743,-0.3739,-0.3759,-0.3738,-0.3738,-0.3738,-0.3738,-0.3739,0,-0.3238,-0.3267,-0.3293,-0.3335,-0.3358,-0.3384,-0.342,-0.3438,-0.3463,-0.3498,-0.3526,-0.3562,-0.3594,-0.3637,-0.3673,-0.3684,-0.3699,-0.3692,-0.3692,-0.3697,-0.3726,-0.3722,-0.368,-0.368,-0.368,-0.368,-0.368,-0.368,-0.3222,-0.3243,-0.3268,-0.3303,-0.3332,-0.3361,-0.338,-0.3406,-0.3434,-0.3473,-0.3499,-0.3527,-0.3566,-0.3605,-0.3636,-0.3648,-0.3659,-0.3648,-0.3664,-0.369,-0.3695,-0.37,-0.3697,-0.365,-0.365,-0.3633,-0.3633,-0.3633]}]]